Weather reports worldwide

Advertisment
Zamora, Spain (8130): temperature & dewpoint: 13.03.2019 10:00:00 - 19.03.2019 10:00:00 (CET)Zamora, Spain (8130): wind speed: 13.03.2019 10:00:00 - 19.03.2019 10:00:00 (CET)Zamora, Spain (8130): wind direction: 13.03.2019 10:00:00 - 19.03.2019 10:00:00 (CET)Zamora, Spain (8130): reduced air pressure: 13.03.2019 10:00:00 - 19.03.2019 10:00:00 (CET)Zamora, Spain (8130): visibility: 13.03.2019 10:00:00 - 19.03.2019 10:00:00 (CET)Zamora, Spain (8130): precipitation: 13.03.2019 10:00:00 - 19.03.2019 10:00:00 (CET)
Date & Time tt [°C] td [°C] ff [km/h] ff [kn] dd ppp [hPa] vv [km] rr [mm]
19.03.2019 10:00:00 - - - - - - - -
19.03.2019 09:00:00 2,3 0,4 4 2 NNE 1030,7 20 0,0
19.03.2019 08:00:00 0,7 -0,9 2 1 NE 1030,9 20 0,0
19.03.2019 07:00:00 0,7 -1,1 2 1 NE 1030,4 20 -
19.03.2019 06:00:00 1,0 -1,1 4 2 N 1030,1 20 0,0
19.03.2019 05:00:00 1,5 -0,9 2 1 N 1029,9 20 0,0
19.03.2019 04:00:00 2,1 -0,7 2 1 NNE 1029,7 20 -
19.03.2019 03:00:00 2,7 -0,4 2 1 NNW 1030,0 20 0,0
19.03.2019 02:00:00 3,1 -0,7 4 2 NE 1030,1 20 0,0
19.03.2019 01:00:00 3,7 -0,3 2 1 NNE 1029,6 20 -
19.03.2019 00:00:00 4,0 -0,2 8 4 ENE 1029,5 20 0,0
18.03.2019 23:00:00 6,1 -0,4 4 2 NNE 1028,6 20 0,0
18.03.2019 22:00:00 7,6 -0,6 2 1 NNE 1028,0 20 -
18.03.2019 21:00:00 8,6 -0,7 4 2 N 1027,1 20 0,0
18.03.2019 20:00:00 9,9 -1,2 4 2 ENE 1026,3 20 0,0
18.03.2019 19:00:00 11,4 -0,8 9 5 E 1025,7 20 -
18.03.2019 18:00:00 12,6 -1,0 9 5 ENE 1025,2 20 0,0
18.03.2019 17:00:00 13,4 -1,0 11 6 ENE 1025,0 20 0,0
18.03.2019 16:00:00 13,1 -0,2 11 6 NE 1025,4 20 -
18.03.2019 15:00:00 12,4 0,8 15 8 ENE 1026,1 20 0,0
18.03.2019 14:00:00 11,5 0,3 15 8 NE 1027,4 20 0,0
18.03.2019 13:00:00 10,6 1,1 15 8 ENE 1028,2 20 -
18.03.2019 12:00:00 9,4 0,5 13 7 ENE 1029,1 20 0,0
18.03.2019 11:00:00 7,2 1,1 11 6 ENE 1029,7 20 0,0
18.03.2019 10:00:00 4,3 0,3 8 4 NE 1030,5 20 -
18.03.2019 09:00:00 0,8 -1,0 5 3 NE 1030,9 20 0,0
18.03.2019 08:00:00 -0,7 -2,0 4 2 NNE 1030,6 20 0,0
18.03.2019 07:00:00 -0,6 -2,2 4 2 NNE 1030,0 20 -
18.03.2019 06:00:00 0,0 -1,8 5 3 ENE 1029,6 20 0,0
18.03.2019 05:00:00 1,1 -1,3 4 2 ENE 1028,8 20 0,0
18.03.2019 04:00:00 2,1 -0,7 8 4 ENE 1028,3 20 -
18.03.2019 03:00:00 2,5 -0,4 5 3 ENE 1028,3 20 0,0
18.03.2019 02:00:00 3,3 -0,2 9 5 ENE 1027,6 20 0,0
18.03.2019 01:00:00 4,2 0,0 11 6 ENE 1027,2 20 -
18.03.2019 00:00:00 5,6 0,2 13 7 ENE 1026,5 20 0,0
17.03.2019 23:00:00 6,7 1,0 15 8 ENE 1025,7 20 0,0
17.03.2019 22:00:00 8,0 2,0 18 10 ENE 1024,2 20 -
17.03.2019 21:00:00 10,1 3,1 13 7 NE 1022,2 20 0,0
17.03.2019 20:00:00 13,2 4,3 11 6 NNW 1020,1 20 0,0
17.03.2019 19:00:00 14,2 4,2 5 3 WNW 1019,2 20 -
17.03.2019 18:00:00 14,9 4,3 5 3 W 1018,6 20 0,0
17.03.2019 17:00:00 15,3 4,9 5 3 WNW 1018,2 20 0,0
17.03.2019 16:00:00 15,9 4,9 8 4 W 1018,3 18 -
17.03.2019 15:00:00 16,6 4,9 5 3 WNW 1018,3 20 0,0
17.03.2019 14:00:00 16,4 5,4 8 4 WSW 1019,0 20 0,0
17.03.2019 13:00:00 14,6 5,4 5 3 NW 1019,9 20 -
17.03.2019 12:00:00 13,0 5,4 5 3 WNW 1020,8 20 0,0
17.03.2019 11:00:00 10,7 4,4 8 4 W 1021,4 20 0,0
17.03.2019 10:00:00 8,1 3,5 8 4 W 1021,9 20 -
17.03.2019 09:00:00 5,9 2,7 8 4 WSW 1022,1 20 0,0
17.03.2019 08:00:00 5,6 2,6 8 4 SW 1021,4 17 0,0
17.03.2019 07:00:00 5,5 2,3 8 4 W 1020,7 15 -
17.03.2019 06:00:00 6,2 1,9 13 7 W 1019,6 18 0,0
17.03.2019 05:00:00 7,5 0,9 13 7 W 1018,9 20 0,0
17.03.2019 04:00:00 8,0 1,4 9 5 W 1019,2 20 -
17.03.2019 03:00:00 8,4 1,1 5 3 WSW 1018,6 20 0,0
17.03.2019 02:00:00 9,6 0,7 8 4 SW 1018,6 20 0,0
17.03.2019 01:00:00 10,7 1,0 9 5 SW 1018,7 20 -
17.03.2019 00:00:00 12,2 0,6 8 4 WSW 1018,5 20 0,0
16.03.2019 23:00:00 12,9 1,2 4 2 W 1018,3 20 0,0
16.03.2019 22:00:00 14,1 2,0 4 2 W 1017,9 20 -
16.03.2019 21:00:00 16,0 2,0 4 2 WSW 1016,8 20 0,0
16.03.2019 20:00:00 17,3 1,3 4 2 W 1016,1 20 0,0
16.03.2019 19:00:00 19,8 -0,3 8 4 W 1015,6 20 -
16.03.2019 18:00:00 21,2 -1,4 11 6 W 1015,2 20 0,0
16.03.2019 17:00:00 22,7 0,5 11 6 WSW 1015,0 20 0,0
16.03.2019 16:00:00 23,2 0,3 11 6 WSW 1015,5 20 -
16.03.2019 15:00:00 22,1 4,2 8 4 W 1016,4 19 0,0
16.03.2019 14:00:00 19,2 4,1 4 2 NNW 1018,7 18 0,0
16.03.2019 13:00:00 15,6 4,0 4 2 NNE 1021,2 19 -
16.03.2019 12:00:00 12,7 3,1 5 3 N 1022,7 19 0,0
16.03.2019 11:00:00 9,3 2,2 4 2 ENE 1024,2 20 0,0
16.03.2019 10:00:00 5,3 1,4 5 3 ENE 1025,6 19 -
16.03.2019 09:00:00 2,2 0,1 5 3 ENE 1026,5 20 0,0
16.03.2019 08:00:00 0,4 -1,4 2 1 NNE 1027,1 17 0,0
16.03.2019 07:00:00 1,3 -0,6 2 1 E 1027,0 20 -
16.03.2019 06:00:00 1,2 -1,0 2 1 NNW 1027,2 20 0,0
16.03.2019 05:00:00 1,6 -0,8 4 2 NE 1027,1 20 0,0
16.03.2019 04:00:00 2,6 -1,0 2 1 E 1027,2 20 -
16.03.2019 03:00:00 3,3 -0,5 2 1 NNW 1027,7 20 0,0
16.03.2019 02:00:00 4,4 -0,8 4 2 ENE 1027,8 20 0,0
16.03.2019 01:00:00 5,7 -0,6 2 1 NW 1027,6 20 -
16.03.2019 00:00:00 6,8 0,2 0 0 N 1027,4 20 0,0
15.03.2019 23:00:00 8,7 0,6 2 1 N 1026,8 18 0,0
15.03.2019 22:00:00 10,8 0,2 2 1 ENE 1026,1 15 -
15.03.2019 21:00:00 12,9 -0,7 2 1 SSE 1025,2 20 0,0
15.03.2019 20:00:00 15,4 -1,2 2 1 S 1024,3 20 0,0
15.03.2019 19:00:00 17,6 -2,7 4 2 SSE 1023,8 20 -
15.03.2019 18:00:00 19,5 -1,6 4 2 S 1023,1 20 0,0
15.03.2019 17:00:00 21,1 -0,3 2 1 ESE 1023,0 20 0,0
15.03.2019 16:00:00 20,2 -2,8 4 2 N 1023,7 18 -
15.03.2019 15:00:00 18,4 0,9 4 2 S 1024,9 20 0,0
15.03.2019 14:00:00 16,2 2,6 4 2 SSE 1026,2 20 0,0
15.03.2019 13:00:00 13,5 4,4 5 3 ENE 1028,0 20 -
15.03.2019 12:00:00 10,7 4,2 8 4 NNE 1029,5 20 0,0
15.03.2019 11:00:00 7,7 3,2 5 3 ENE 1030,7 20 0,0
15.03.2019 10:00:00 4,3 2,0 8 4 NNE 1031,8 19 -
15.03.2019 09:00:00 1,4 0,1 2 1 NNE 1032,9 18 0,0
15.03.2019 08:00:00 0,4 -1,4 2 1 E 1032,9 17 0,0
15.03.2019 07:00:00 1,0 -0,6 4 2 N 1032,4 20 -
15.03.2019 06:00:00 1,3 -0,9 2 1 NW 1032,0 20 0,0
15.03.2019 05:00:00 2,4 -1,0 4 2 NE 1031,6 20 0,0
15.03.2019 04:00:00 3,5 -0,9 4 2 N 1031,3 20 -
15.03.2019 03:00:00 4,5 -0,5 2 1 WNW 1031,4 20 0,0
15.03.2019 02:00:00 5,0 -0,4 2 1 NNE 1031,3 20 0,0
15.03.2019 01:00:00 6,0 0,1 4 2 WNW 1031,0 20 -
15.03.2019 00:00:00 8,0 -0,3 4 2 W 1030,8 20 0,0
14.03.2019 23:00:00 9,0 -0,1 2 1 W 1030,4 20 0,0
14.03.2019 22:00:00 10,8 -0,7 4 2 SW 1029,4 20 -
14.03.2019 21:00:00 12,3 -0,6 4 2 W 1028,5 20 0,0
14.03.2019 20:00:00 13,9 -0,9 5 3 SW 1027,8 20 0,0
14.03.2019 19:00:00 15,3 -0,9 5 3 SW 1027,1 20 -
14.03.2019 18:00:00 16,4 -0,8 8 4 SW 1026,7 20 0,0
14.03.2019 17:00:00 18,1 0,2 4 2 WSW 1026,5 19 0,0
14.03.2019 16:00:00 16,7 0,3 4 2 WNW 1027,6 20 -
14.03.2019 15:00:00 15,3 0,3 5 3 SSW 1028,6 20 0,0
14.03.2019 14:00:00 13,4 0,1 4 2 N 1030,4 20 0,0
14.03.2019 13:00:00 11,6 0,4 4 2 ENE 1032,0 20 -
14.03.2019 12:00:00 9,9 0,5 4 2 SSW 1033,1 20 0,0
14.03.2019 11:00:00 7,4 0,8 4 2 E 1033,8 20 0,0
14.03.2019 10:00:00 4,0 0,3 4 2 NE 1034,8 20 -
14.03.2019 09:00:00 0,7 -1,2 4 2 N 1035,9 20 0,0
14.03.2019 08:00:00 -0,2 -2,1 2 1 NNE 1036,2 20 0,0
14.03.2019 07:00:00 0,5 -2,1 2 1 W 1035,6 20 -
14.03.2019 06:00:00 1,3 -1,3 2 1 SSE 1035,3 20 0,0
14.03.2019 05:00:00 2,1 -0,8 4 2 S 1034,6 20 0,0
14.03.2019 04:00:00 2,5 -0,9 2 1 NW 1034,9 20 -
14.03.2019 03:00:00 3,0 -0,8 4 2 N 1035,0 20 0,0
14.03.2019 02:00:00 3,0 -0,6 2 1 NE 1035,1 20 0,0
14.03.2019 01:00:00 3,8 -0,6 4 2 NE 1035,1 20 -
14.03.2019 00:00:00 4,6 -0,4 5 3 ESE 1034,7 20 0,0
13.03.2019 23:00:00 5,6 -0,5 8 4 ENE 1034,4 20 0,0
13.03.2019 22:00:00 6,6 0,3 5 3 N 1033,7 20 -
13.03.2019 21:00:00 8,3 0,0 11 6 NNE 1032,6 20 0,0
13.03.2019 20:00:00 9,8 -0,1 5 3 NNW 1031,3 20 0,0
13.03.2019 19:00:00 11,6 -1,2 15 8 N 1030,4 20 -
13.03.2019 18:00:00 12,8 -0,8 16 9 N 1029,5 20 0,0
13.03.2019 17:00:00 13,8 -1,8 16 9 N 1028,9 20 0,0
13.03.2019 16:00:00 - - - - - - - -
13.03.2019 15:00:00 12,9 -1,8 11 6 N 1029,1 20 0,0
13.03.2019 14:00:00 12,8 -1,2 16 9 N 1029,7 20 0,0
13.03.2019 13:00:00 12,7 -0,2 15 8 N 1030,1 20 -
13.03.2019 12:00:00 11,0 -1,4 15 8 N 1030,6 20 0,0
13.03.2019 11:00:00 9,2 -1,0 13 7 NNE 1031,4 18 0,0
13.03.2019 10:00:00 6,8 -1,1 8 4 N 1031,8 18 -

tt = temperature
td = dewpoint
ff = wind speed
dd = wind direction
ppp = reduced air pressure
vv = visibility
rr = precipitation

Next stations